Location: F M Corners
(41.2198°N, 80.4709°W)
Time: 20:37:46
(UTC+00:00)

SMAP - Pass Details

Date: 29 October 2020
Orbit: 681 x 683 km, 98.1° (Epoch: 03 December)

Event Time Altitude Azimuth Distance (km) Brightness Sun altitude
Rises 22:54:34 0° 170° (S) 3,030 6.4 -7.0°
Reaches altitude 10° 22:56:48 10° 172° (S) 2,119 5.7 -7.5°
Maximum altitude 23:01:26 73° 258° (WSW) 716 3.4 -8.3°
Drops below altitude 10° 23:06:06 10° 343° (NNW) 2,135 5.7 -9.2°
Sets 23:08:21 0° 346° (NNW) 3,055 6.5 -9.6°
